[[{"header":{"parameterUnit":"m.s-1","parameterCategory":1,"la1":30.2992,"la2":30.254,"lo1":-89.0895,"lo2":-89.0443,"dy":0.0025,"dx":0.0025,"nx":19,"ny":19,"refTime":"2026-04-20T21:00:00:Z","depth":0,"parameterNumber":2,"parameterNumberName":"U-component_of_WINDS"},"data":[0,0,0,-0.3909,-0.3912,-0.4079,-0.408,-0.4285,-0.4287,0,0,0,0,0,0,0,0,0,0,0,-0.3852,-0.3853,-0.3909,-0.3913,-0.4079,-0.408,-0.4285,-0.4287,0,0,0,0,0,0,0,0,0,0,0,-0.3852,-0.3853,-0.3854,-0.3913,-0.4079,-0.408,-0.4284,-0.4162,0,0,0,0,0,0,0,0,0,0,-0.4002,-0.3942,-0.3853,-0.3854,-0.3914,-0.4078,-0.408,-0.4157,-0.417,-0.4205,0,-0.4232,0,-0.4262,-0.43,-0.4301,0,0,0,-0.3919,-0.3931,-0.3982,-0.3855,-0.3915,-0.4078,-0.4006,-0.4164,-0.4179,-0.4223,-0.4235,-0.4243,-0.4266,-0.4301,-0.4302,-0.4475,-0.4475,0,0,-0.391,-0.388,-0.3971,-0.3991,-0.3961,-0.4,-0.4011,-0.4173,-0.4186,-0.4236,-0.4248,-0.4269,-0.4302,-0.4304,-0.4475,-0.4475,0,0,0,-0.3879,-0.3873,-0.392,-0.3982,-0.4012,-0.4005,-0.4017,-0.4179,-0.4197,-0.4251,-0.4272,-0.4304,-0.4306,-0.4474,-0.4475,-0.4468,0,0,0,-0.3874,-0.3855,-0.3915,-0.3899,-0.4009,-0.4097,-0.4019,-0.4186,-0.4205,-0.4271,-0.4304,-0.4308,-0.4474,-0.4474,-0.4467,-0.4472,0,0,0,-0.3844,-0.3851,-0.3872,-0.3896,-0.3966,-0.4095,-0.4123,-0.419,-0.4217,-0.4301,-0.4308,-0.4473,-0.4474,-0.4466,-0.447,-0.4508,0,0,0,-0.3805,-0.3867,-0.3872,-0.3949,-0.3965,-0.4088,-0.4122,-0.4217,-0.4287,-0.4305,-0.4474,-0.4475,-0.4466,-0.447,-0.4506,-0.4534,-0.4542,0,0,-0.3867,-0.3874,-0.3922,-0.393,-0.4044,-0.4065,-0.418,-0.4276,-0.4314,-0.442,-0.4425,-0.4467,-0.447,-0.4507,-0.4595,-0.4601,0,0,0,-0.3931,-0.3965,-0.4002,-0.4065,-0.4136,-0.4198,-0.4278,-0.4313,-0.4404,-0.4361,-0.4491,-0.4494,-0.4517,-0.4532,-0.4537,-0.4559,-0.448,-0.4479,-0.4479,-0.3979,-0.4019,-0.4101,-0.416,-0.4221,-0.43,-0.4354,-0.4415,-0.4442,-0.4472,-0.4505,-0.4552,-0.4569,-0.4573,-0.4595,-0.4521,-0.4521,-0.4521,-0.4521,-0.4076,-0.4131,-0.4158,-0.4248,-0.429,-0.4367,-0.4445,-0.446,-0.454,-0.4532,-0.4555,-0.4545,-0.4578,-0.46,-0.4521,-0.4521,-0.4521,-0.4521,-0.4521,-0.4114,-0.4147,-0.4184,-0.4276,-0.4343,-0.4401,-0.4473,-0.451,-0.4547,-0.4568,-0.4607,-0.4607,-0.4613,-0.4583,-0.4583,-0.4583,-0.4584,-0.4584,-0.4584,-0.414,-0.4181,-0.4236,-0.4312,-0.4355,-0.4417,-0.4493,-0.4538,-0.4597,-0.4619,-0.4619,-0.4643,-0.4572,-0.4554,-0.4587,-0.4586,-0.4586,-0.4586,-0.4585,-0.4228,-0.4212,-0.4297,-0.4339,-0.443,-0.4493,-0.4535,-0.4622,-0.4665,-0.4699,-0.4716,-0.4657,-0.4669,-0.4665,-0.4651,-0.4706,-0.4706,-0.4706,-0.4706,-0.4262,-0.4268,-0.4361,-0.4426,-0.4494,-0.4539,-0.4635,-0.4694,-0.4753,-0.4782,-0.4778,-0.4761,-0.4755,-0.4771,-0.4765,-0.4753,-0.4833,-0.4833,-0.4833,-0.4318,-0.4332,-0.4406,-0.4458,-0.453,-0.4592,-0.4683,-0.4758,-0.4822,-0.4839,-0.4805,-0.48,-0.4773,-0.4762,-0.4783,-0.4773,-0.4751,0,0]},{"header":{"parameterUnit":"m.s-1","parameterCategory":1,"la1":30.2992,"la2":30.254,"lo1":-89.0895,"lo2":-89.0443,"dy":0.0025,"dx":0.0025,"nx":19,"ny":19,"refTime":"2026-04-20T21:00:00:Z","depth":0,"parameterNumber":3,"parameterNumberName":"V-component_of_WINDS"},"data":[0,0,0,-0.2448,-0.245,-0.2591,-0.2592,-0.2751,-0.2753,0,0,0,0,0,0,0,0,0,0,0,-0.2394,-0.2394,-0.2447,-0.2451,-0.2591,-0.2592,-0.2751,-0.2753,0,0,0,0,0,0,0,0,0,0,0,-0.2393,-0.2394,-0.2395,-0.2451,-0.2591,-0.2592,-0.2751,-0.2652,0,0,0,0,0,0,0,0,0,0,-0.2519,-0.2457,-0.2394,-0.2395,-0.2452,-0.2591,-0.2592,-0.2648,-0.2658,-0.2678,0,-0.2693,0,-0.2725,-0.2762,-0.2762,0,0,0,-0.246,-0.2448,-0.2497,-0.2395,-0.2453,-0.2591,-0.2531,-0.2654,-0.2666,-0.2692,-0.2696,-0.2702,-0.2728,-0.2763,-0.2763,-0.2847,-0.2847,0,0,-0.2452,-0.2413,-0.2488,-0.2504,-0.2481,-0.2526,-0.2535,-0.2661,-0.2663,-0.2696,-0.2706,-0.273,-0.2764,-0.2765,-0.2847,-0.2847,0,0,0,-0.2424,-0.2407,-0.2453,-0.2497,-0.2524,-0.253,-0.254,-0.2657,-0.2675,-0.2708,-0.2732,-0.2764,-0.2766,-0.2847,-0.2847,-0.2805,0,0,0,-0.2419,-0.239,-0.2449,-0.2426,-0.2521,-0.2592,-0.2532,-0.2667,-0.2682,-0.2731,-0.2765,-0.2768,-0.2847,-0.2847,-0.2806,-0.2792,0,0,0,-0.2389,-0.2387,-0.2402,-0.2424,-0.2483,-0.2591,-0.2617,-0.2671,-0.2696,-0.2762,-0.2768,-0.2847,-0.2847,-0.2807,-0.2794,-0.2802,0,0,0,-0.2345,-0.2365,-0.2401,-0.2432,-0.2481,-0.2563,-0.2617,-0.268,-0.2732,-0.2765,-0.2847,-0.2847,-0.2808,-0.2796,-0.2803,-0.2801,-0.2796,0,0,-0.2348,-0.2364,-0.2385,-0.2422,-0.2487,-0.2545,-0.2604,-0.269,-0.2734,-0.2806,-0.2809,-0.2806,-0.2794,-0.2802,-0.2783,-0.2779,0,0,0,-0.2372,-0.2387,-0.2413,-0.2459,-0.2524,-0.2578,-0.2658,-0.2689,-0.2753,-0.2763,-0.2811,-0.2806,-0.2812,-0.2813,-0.281,-0.2817,-0.2845,-0.2845,-0.2845,-0.2321,-0.2373,-0.2412,-0.248,-0.2524,-0.2604,-0.2645,-0.2701,-0.2743,-0.2752,-0.2775,-0.2757,-0.2757,-0.2755,-0.2762,-0.2778,-0.2778,-0.2777,-0.2777,-0.233,-0.236,-0.2411,-0.2466,-0.2521,-0.2568,-0.2645,-0.2672,-0.2724,-0.2745,-0.2753,-0.2773,-0.2749,-0.2758,-0.2775,-0.2775,-0.2776,-0.2776,-0.2776,-0.2303,-0.2326,-0.2362,-0.2432,-0.248,-0.2548,-0.2594,-0.2643,-0.2689,-0.2696,-0.2724,-0.2725,-0.2732,-0.2706,-0.2706,-0.2706,-0.2706,-0.2706,-0.2706,-0.2262,-0.2303,-0.2336,-0.2403,-0.2437,-0.2489,-0.2567,-0.2603,-0.2654,-0.2686,-0.2686,-0.2725,-0.2736,-0.2738,-0.2705,-0.2705,-0.2705,-0.2705,-0.2705,-0.2253,-0.2262,-0.2313,-0.2347,-0.2428,-0.2471,-0.253,-0.2597,-0.2633,-0.2654,-0.2691,-0.2691,-0.2711,-0.2714,-0.2716,-0.268,-0.268,-0.268,-0.268,-0.2231,-0.2245,-0.2306,-0.2357,-0.2412,-0.247,-0.2524,-0.2583,-0.2647,-0.2672,-0.2684,-0.269,-0.2691,-0.2711,-0.2714,-0.2717,-0.2681,-0.2681,-0.2681,-0.2228,-0.2249,-0.2287,-0.2347,-0.2413,-0.2469,-0.2521,-0.2576,-0.265,-0.2682,-0.2692,-0.2692,-0.2703,-0.2704,-0.2738,-0.2742,-0.2748,0,0]}]]